Other Public Products
Issued by NWS Grand Forks, ND

Home | Current Version | Previous Version | Text Only | Print | Product List | Glossary Off
Versions: 1 2 3 4 5 6 7 8 9 10 11 12 13 14 15 16 17 18 19 20 21 22 23 24 25 26 27 28 29 30 31 32 33 34 35 36 37 38 39 40 41 42 43 44 45 46 47 48 49 50

000
FPUS83 KFGF 291731
OPUFGF
PRAIRIE TO PINES WEATHER ROUNDUP
NATIONAL WEATHER SERVICE EASTERN NORTH DAKOTA/GRAND FORKS ND
1200 PM CDT FRI AUG 29 2014

 **SATELLITE DATA USED TO AUGMENT SKY COVER AT AUTOMATED STATIONS**
 *****  WEATHER ACROSS EASTERN NORTH DAKOTA  *****

CITY           SKY/WX    TMP DP  RH WIND       PRES   REMARKS
GRAND FORKS    CLOUDY    68  64  87 S7        29.76S
GRAND FORKS AF CLOUDY    68  68 100 S5        29.77S FOG
GRAND CITY NWS   N/A     68 N/A N/A MISG        N/A
BUXTON           N/A     68  67  97 SE2         N/A
DEVILS LAKE    PTSUNNY   70  61  73 N20       29.77S
FARGO          CLOUDY    69  64  84 SW3       29.76S
WAHPETON ARPT  CLOUDY    68  63  83 CALM      29.79R
$$

 *****  WEATHER ACROSS CENTRAL AND WESTERN NORTH DAKOTA  *****

CITY           SKY/WX    TMP DP  RH WIND       PRES   REMARKS
JAMESTOWN      PTSUNNY   73  64  73 NW15      29.79R
BISMARCK       PTSUNNY   70  59  68 NW16G26   29.88R
MINOT          PTSUNNY   67  56  67 N14       29.90R
MINOT AFB      CLOUDY    64  57  77 N15       29.91R
GARRISON         N/A     64  61  90 N12G21    29.90R
WILLISTON      PTSUNNY   68  55  63 N17       29.99R
DICKINSON      CLOUDY    63  56  78 NW18G25   29.95R
HETTINGER      CLOUDY    66  55  67 NW16G26   29.97R
$$

 *****  OTHER OBSERVATIONS NORTHEAST NORTH DAKOTA  *****

CITY           SKY/WX    TMP DP  RH WIND       PRES   REMARKS
WALHALLA         N/A     64  64 100 N16G25    29.79R FOG
LANGDON        LGT RAIN  63  61  94 N16G23    29.80R
CAVALIER       CLOUDY    68  66  94 S3        29.76S
GRAFTON        CLOUDY    66  66 100 SW6       29.76S FOG
CANDO          CLOUDY    63  59  88 N21G26    29.84R
FORT TOTTEN      N/A     71  66  84 NW3       29.95S
ROLLA          CLOUDY    57  57 100 N18G26    29.88R
RUGBY          CLOUDY    63  59  88 N20G28    29.86R
 ***** THE ABOVE OBSERVATIONS ARE NON NWS ARE NOT QUALITY
        CONTROLLED AND MAY MIS-REPORT RAIN FOR SNOW...
$$

 *****  OTHER OBSERVATIONS SOUTHEAST NORTH DAKOTA *****

CITY           SKY/WX    TMP DP  RH WIND       PRES   REMARKS
COOPERSTOWN    NOT AVBL
VALLEY CITY    CLOUDY    68  68 100 W7        29.79S
OAKES            N/A     68  68 100 SW5       29.80R
GWINNER        CLOUDY    70  70 100 SW5       29.80S
SHEYENNE NWR     N/A     68  65  90 CALM      29.95S
BUFFALO          N/A     71  62  74 CALM        N/A
WYNDMERE       NOT AVBL
 ***** THE ABOVE OBSERVATIONS ARE NON NWS ARE NOT QUALITY
       CONTROLLED AND MAY MIS-REPORT RAIN FOR SNOW...
$$

  *****  WEATHER ACROSS NORTHERN MINNESOTA  *****

CITY           SKY/WX    TMP DP  RH WIND       PRES   REMARKS
FLAG ISLAND    CLOUDY    66  63  88 CALM      29.76S
WARROAD        CLOUDY    70  64  83 S6        29.76F
ROSEAU         PTSUNNY   70  63  78 SW7       29.76S
HALLOCK        PTSUNNY   68  64  88 SW6       29.76S
THF RVR FALLS  CLOUDY    70  64  83 S5        29.77F
HALSTAD          N/A     69  63  80 SW3         N/A
FOSSTON        CLOUDY    70  63  78 CALM      29.78S
BAUDETTE       CLOUDY    65  63  93 SE6       29.78S
WASKISH        CLOUDY    64  64 100 CALM      29.78F FOG
CROOKSTON      CLOUDY    70  64  83 SW6       29.77F
$$
  *****  WEATHER ACROSS CENTRAL AND WEST MINNESOTA  *****

CITY           SKY/WX    TMP DP  RH WIND       PRES   REMARKS
BEMIDJI        CLOUDY    66  64  91 SW5       29.78F
PARK RAPIDS    CLOUDY    67  64  90 CALM      29.78F
WADENA         DRIZZLE   66  64  94 CALM      29.78S
DETROIT LAKES  LGT RAIN  66  64  94 CALM      29.79F
MOORHEAD       CLOUDY    70  70 100 CALM      29.78S
FERGUS FALLS   CLOUDY    66  66 100 W3        29.78F
ELBOW LAKE     CLOUDY    68  66  92 SW5       29.78F
MORRIS MN      CLOUDY    72  68  88 NW7       29.77F
STAPLES        CLOUDY    66  64  94 CALM      29.79R
WHEATON        CLOUDY    66  64  94 CALM      29.80F
$$
  *****  WEATHER ELSEWHERE ACROSS MINNESOTA  *****

CITY           SKY/WX    TMP DP  RH WIND       PRES   REMARKS
DULUTH         LGT RAIN  63  60  90 CALM      29.79F FOG
INTRNTL FALLS  CLOUDY    67  61  81 S8        29.80S
ELY            LGT RAIN  61  59  94 CALM      29.82F
CLOQUET        LGT RAIN  63  61  94 CALM      29.79F
BRAINERD       LGT RAIN  65  64  97 NE3       29.78F
HIBBING        LGT RAIN  63  61  93 SE3       29.81F
ALEXANDRIA     CLOUDY    69  65  86 CALM      29.81S
SAINT CLOUD    CLOUDY    72  68  87 S7        29.78R
MINNEAPOLIS    CLOUDY    75  68  78 S7        29.79F
$$

  *****  WEATHER ACROSS SOUTH DAKOTA  *****

CITY           SKY/WX    TMP DP  RH WIND       PRES   REMARKS
SIOUX FALLS    CLOUDY    73  69  87 S5        29.81S
BROOKINGS      NOT AVBL
WATERTOWN      CLOUDY    70  66  87 VRB3      29.81S
HURON          CLOUDY    72  67  84 N10       29.82R
SISSETON         N/A     70  67  90 CALM      29.78F
ABERDEEN       CLOUDY    67  66  97 S8        29.80S
MITCHELL       CLOUDY    73  69  87 N8        29.83R
PIERRE         MOSUNNY   74  67  78 N9        29.83S
MOBRIDGE       SUNNY     73  62  68 NW22G30   29.83S
RAPID CITY     LGT RAIN  64  53  67 N16G28    30.00R
$$

  *****  SOME WEATHER IN NEARBY STATES *****

CITY           SKY/WX    TMP DP  RH WIND       PRES   REMARKS
GLASGOW MT     CLOUDY    63  52  67 VRB6      30.05S
GREAT FALLS MT SUNNY     64  50  60 E6        30.03F
CHEYENNE WY    MOSUNNY   68  45  43 NW16G24   30.18R
SCOTTSBLUFF NE MOSUNNY   74  58  57 NW21      30.03R
OMAHA NE       LGT RAIN  73  68  84 SW6       29.85S
DES MOINES IA  PTSUNNY   84  70  62 S16       29.82F
DAVENPORT IA   SUNNY     82  71  69 S13       29.91F
CHICAGO IL     CLOUDY    82  68  62 S9        29.96F
EAU CLAIRE WI  PTSUNNY   74  68  81 S10       29.82F
LA CROSSE WI   MOSUNNY   80  70  71 S15       29.84F
$$

  *****  SOME NATIONAL WEATHER *****

CITY           SKY/WX    TMP DP  RH WIND       PRES   REMARKS
LA GUARDIA NY  MOSUNNY   73  49  42 CALM      30.18F
RALEIGH NC     CLOUDY    80  68  66 E6        30.14S
ATLANTA GA     MOSUNNY   89  55  31 S12       30.09S
NEW ORLEANS LA CLOUDY    85  74  69 SE7       29.99R THUNDER HX  92
OKLAHOMA CITY  PTSUNNY   79  67  66 SW10      29.95S
ALBUQUERQUE NM MOSUNNY   75  45  34 VRB5      30.19S
SALT LAKE CITY MOSUNNY   77  44  30 SE12      30.09F
LOS ANGELES CA MOSUNNY   73  63  70 W8        29.90R
BOISE ID       SUNNY     77  42  28 VRB3      29.99S
SEATTLE WA     PTSUNNY   65  51  60 W8        30.00S
$$

*** WEATHER ACROSS MANITOBA...SASKATCHEWAN AND ONTARIO ***
                ***ONTARIO***

CITY           SKY/WX    TMP DP  RH WIND       PRES   REMARKS
GERALDTON      LGT RAIN N/A N/A N/A S9          N/A
THUNDER BAY    LGT RAIN  63  59  88 E5        29.87F FOG
SIOUX LOOKOUT  LGT RAIN  63  63 100 S8        29.79
TORONTO        PTSUNNY   72  54  53 SE9       30.18F
BIG TROUT LK   MOSUNNY   64  54  68 NW6       29.75R
PICKLE LAKE    CLOUDY    64  61  88 S10       29.78R
DRYDEN         CLOUDY    63  61  94 S10       29.79F
KENORA         NOT AVBL
$$
                *** MANITOBA***

CITY           SKY/WX    TMP DP  RH WIND       PRES   REMARKS
BRANDON        PTSUNNY   61  54  77 N15       29.92R
DAUPHIN        MOSUNNY   61  52  72 N8        29.95R
ISLAND LAKE    PTSUNNY   57  54  88 W6        29.82R
PILOT MOUND      N/A     59  57  94 N16G24      N/A
THE PAS        MOSUNNY   57  43  58 NW10      29.96S
THOMPSON       PTSUNNY   57  41  54 N9        29.88S
WINNIPEG       LGT RAIN  61  59  94 N18G26    29.81R
LYNN LAKE      CLOUDY    52  43  71 MISG      29.93S
CHURCHILL      PTSUNNY   54  43  66 NW20G26   29.73S
GILLAM         CLOUDY   N/A N/A N/A NW13        N/A
$$
                ***SASKATCHEWAN***

CITY           SKY/WX    TMP DP  RH WIND       PRES   REMARKS
ESTEVAN        PTSUNNY   64  52  63 N9        29.99
KINDERSLEY     MOSUNNY   63  50  63 S12       30.02F
LLOYDMINSTER   MOSUNNY   61  50  67 S10       29.97F
PRINCE ALBERT  SUNNY     57  39  51 CALM      30.04F
REGINA         SUNNY     63  52  67 N6        30.02S



USA.gov is the U.S. government's official web portal to all federal, state and local government web resources and services.